EA5CEE Santa Pola ES current weather conditions

sailwx.info

Wind from 187 at 5 knots gusting 7

Air temperature 16.1° C
Dewpoint 11.3° C

Last reported at 2020-Feb-22 13:01 UTC.
Time now 2020-Feb-22 13:47 UTC

Location: N 38°13' W 000°31'.
View on Google Maps.

See reports from other nearby stations

  
Tides and Currents Weather Stations Pressure Air Temp Water Temp Dewpoint Dewpoint Depression Visibility Wind Speed Wind Dir Waves Ship Positions
date/time (UTC)wind fromknots sea level pressurealtimeterstation pressurevisibilityair tempwater tempwave heightnotes
2020-Feb-22 13:01 187 5 gusting 7 16.1
2020-Feb-22 12:46 217 3 gusting 6 16.7
2020-Feb-22 12:31 207 4 gusting 6 16.7
2020-Feb-22 12:17 160 2 gusting 4 17.2
2020-Feb-22 12:01 270 0 gusting 3 17.2
2020-Feb-22 11:45 233 1 gusting 3 16.7
2020-Feb-22 11:31 141 16.7
2020-Feb-22 11:16 288 0 gusting 2 16.7
2020-Feb-22 11:01 260 0 gusting 3 15.6
2020-Feb-22 10:45 262 1 gusting 3 15.6
2020-Feb-22 10:31 144 15.0
2020-Feb-22 10:00 214 14.4
2020-Feb-22 09:46 214 0 gusting 2 14.4
2020-Feb-22 09:30 212 0 gusting 1 12.8
2020-Feb-22 09:15 228 1 gusting 2 11.7
2020-Feb-22 09:00 224 1 gusting 5 10.6
2020-Feb-22 08:45 263 2 gusting 4 10.0
2020-Feb-22 08:30 274 2 gusting 4 9.4
2020-Feb-22 08:15 259 3 gusting 5 8.9
2020-Feb-22 08:00 239 4 gusting 6 8.3
2020-Feb-22 07:45 260 4 gusting 5 8.3
2020-Feb-22 07:30 219 2 gusting 5 8.3
2020-Feb-22 07:15 212 3 gusting 6 8.3
2020-Feb-22 07:00 231 3 gusting 5 8.3
2020-Feb-22 06:45 225 4 gusting 6 8.3
2020-Feb-22 06:31 239 5 gusting 6 8.3
2020-Feb-22 06:02 246 4 gusting 6 7.8
2020-Feb-22 05:48 238 5 gusting 7 7.8
2020-Feb-22 05:32 238 5 gusting 7 7.8
2020-Feb-22 05:16 235 6 gusting 8 7.8
2020-Feb-22 05:01 245 5 gusting 7 7.8
2020-Feb-22 04:47 228 3 gusting 6 8.3
2020-Feb-22 04:31 239 4 gusting 6 8.3
2020-Feb-22 04:16 248 5 gusting 6 8.3
2020-Feb-22 04:02 242 4 gusting 6 8.3
2020-Feb-22 03:46 252 4 gusting 5 8.3
2020-Feb-22 03:31 240 4 gusting 6 8.9
2020-Feb-22 03:16 239 4 gusting 6 8.3
2020-Feb-22 03:01 245 3 gusting 5 8.3
2020-Feb-22 02:45 219 3 gusting 5 8.9
2020-Feb-22 02:30 236 3 gusting 4 9.4
2020-Feb-22 02:16 225 2 gusting 3 10.0
2020-Feb-22 02:01 264 1 gusting 3 10.0
2020-Feb-22 01:45 232 2 gusting 5 10.0
2020-Feb-22 01:30 249 2 gusting 3 10.0
2020-Feb-22 01:15 257 2 gusting 4 10.6
2020-Feb-22 01:00 263 2 gusting 3 10.6
2020-Feb-22 00:46 259 2 gusting 4 10.6
2020-Feb-22 00:30 267 1 gusting 3 11.1
2020-Feb-22 00:15 285 2 11.1
2020-Feb-22 00:00 276 1 gusting 2 11.1
2020-Feb-21 23:45 281 0 gusting 2 11.7
2020-Feb-21 23:30 262 0 gusting 1 11.1
2020-Feb-21 23:15 260 0 gusting 1 11.1
2020-Feb-21 23:00 263 11.7
2020-Feb-21 22:45 276 11.7
2020-Feb-21 22:30 285 11.7
2020-Feb-21 22:15 270 11.7
2020-Feb-21 22:00 270 12.2
2020-Feb-21 21:45 255 11.7
2020-Feb-21 21:30 256 11.7
2020-Feb-21 21:15 280 11.7
2020-Feb-21 21:00 311 12.2
2020-Feb-21 20:45 288 12.2
2020-Feb-21 20:30 262 12.2
2020-Feb-21 20:16 091 12.2
2020-Feb-21 20:15 091 12.2
2020-Feb-21 20:02 092 12.2
2020-Feb-21 19:32 092 12.2
2020-Feb-21 19:16 070 12.2
2020-Feb-21 19:02 081 12.2
2020-Feb-21 18:46 070 0 gusting 2 12.8
2020-Feb-21 18:31 088 0 gusting 2 12.8
2020-Feb-21 18:16 094 1 gusting 2 12.8
2020-Feb-21 18:02 094 1 gusting 3 12.8
2020-Feb-21 17:47 078 2 gusting 3 12.8
2020-Feb-21 17:31 081 2 gusting 4 13.3
2020-Feb-21 17:16 098 4 gusting 5 13.3
2020-Feb-21 17:01 083 2 gusting 5 13.3
2020-Feb-21 16:46 073 3 gusting 6 13.3
2020-Feb-21 16:31 094 3 gusting 6 13.9
2020-Feb-21 16:16 063 4 gusting 6 13.9
2020-Feb-21 16:01 051 4 gusting 6 13.9
2020-Feb-21 15:46 077 5 gusting 8 13.9
2020-Feb-21 15:30 070 6 gusting 7 13.9
2020-Feb-21 15:16 061 6 gusting 9 13.9
2020-Feb-21 15:01 063 5 gusting 7 13.9
2020-Feb-21 14:47 055 6 gusting 7 13.9
2020-Feb-21 14:31 086 5 gusting 7 13.9
2020-Feb-21 14:16 076 6 gusting 8 13.9
2020-Feb-21 14:02 075 5 gusting 8 14.4
2020-Feb-21 13:45 062 5 gusting 7 14.4
2020-Feb-21 13:31 086 5 gusting 8 14.4
2020-Feb-21 13:16 084 5 gusting 8 13.9
2020-Feb-21 13:01 074 5 gusting 7 13.9
2020-Feb-21 12:46 056 4 gusting 6 13.9
2020-Feb-21 12:30 084 5 gusting 8 13.9
2020-Feb-21 12:16 068 6 gusting 7 13.9
2020-Feb-21 12:00 065 4 gusting 6 13.9
2020-Feb-21 11:46 069 4 gusting 8 13.9
2020-Feb-21 11:30 069 6 gusting 7 13.9
2020-Feb-21 11:15 077 6 gusting 8 13.3
2020-Feb-21 11:00 059 5 gusting 7 13.3
2020-Feb-21 10:46 063 6 gusting 11 13.3
2020-Feb-21 10:30 074 7 gusting 12 13.3
2020-Feb-21 10:16 070 6 gusting 7 13.3
2020-Feb-21 10:00 076 6 gusting 8 13.3
2020-Feb-21 09:45 084 3 gusting 5 13.3
2020-Feb-21 09:30 075 0 gusting 4 12.8
2020-Feb-21 09:15 195 12.8
2020-Feb-21 09:00 263 12.2
2020-Feb-21 08:45 269 11.7
2020-Feb-21 08:30 253 11.7
2020-Feb-21 08:15 270 11.7
2020-Feb-21 08:00 027 0 gusting 3 11.7
2020-Feb-21 07:46 056 1 gusting 4 11.7
2020-Feb-21 07:32 019 1 gusting 5 11.1
2020-Feb-21 07:17 023 1 gusting 4 10.6
2020-Feb-21 07:01 305 10.0
2020-Feb-21 06:46 250 10.0
2020-Feb-21 06:32 305 9.4
2020-Feb-21 06:16 262 9.4
2020-Feb-21 06:02 354 0 gusting 4 10.0
2020-Feb-21 05:46 005 1 gusting 3 10.0
2020-Feb-21 05:31 349 1 gusting 3 10.0
2020-Feb-21 05:16 026 2 gusting 4 10.0
2020-Feb-21 05:01 039 2 gusting 4 10.0
2020-Feb-21 04:45 041 1 gusting 5 10.0
2020-Feb-21 04:31 036 2 gusting 3 9.4
2020-Feb-21 04:15 009 1 gusting 3 10.0
2020-Feb-21 04:00 025 1 gusting 3 10.6
2020-Feb-21 03:45 356 0 gusting 2 10.6
2020-Feb-21 03:30 008 1 gusting 2 10.6
2020-Feb-21 03:15 023 10.6
2020-Feb-21 03:01 032 1 gusting 1 10.6
2020-Feb-21 02:45 322 10.6
2020-Feb-21 02:30 295 0 gusting 2 10.6
2020-Feb-21 02:15 277 1 gusting 2 10.6
2020-Feb-21 02:01 266 1 gusting 3 10.0
2020-Feb-21 01:45 264 1 gusting 3 10.0
2020-Feb-21 01:30 254 1 gusting 1 10.6
2020-Feb-21 01:15 241 1 gusting 2 10.6
2020-Feb-21 01:00 257 1 gusting 1 11.7
2020-Feb-21 00:45 274 11.7
2020-Feb-21 00:30 276 11.7
2020-Feb-21 00:15 276 11.7
2020-Feb-21 00:00 281 0 gusting 1 11.7
2020-Feb-20 23:45 286 0 gusting 1 11.7
2020-Feb-20 23:30 270 0 gusting 1 11.7
2020-Feb-20 23:15 283 1 gusting 2 11.7
2020-Feb-20 23:00 291 0 gusting 2 11.7
2020-Feb-20 22:45 284 0 gusting 2 11.7
2020-Feb-20 22:30 273 0 gusting 1 11.7
2020-Feb-20 22:17 277 0 gusting 1 11.7
2020-Feb-20 22:02 277 0 gusting 1 11.7
2020-Feb-20 21:47 274 0 gusting 0 11.7
2020-Feb-20 21:32 311 12.2
2020-Feb-20 21:17 023 12.2
2020-Feb-20 21:01 030 0 gusting 1 12.2
2020-Feb-20 20:46 020 12.2
2020-Feb-20 20:31 037 1 gusting 2 12.2
2020-Feb-20 20:18 058 0 gusting 2 12.2
2020-Feb-20 20:02 052 0 gusting 2 12.2
2020-Feb-20 19:47 076 0 gusting 3 12.2
2020-Feb-20 19:33 052 1 gusting 3 12.8
2020-Feb-20 19:17 074 0 gusting 2 12.8
2020-Feb-20 19:02 080 0 gusting 2 12.8
2020-Feb-20 18:46 087 1 gusting 3 12.8
2020-Feb-20 18:31 107 1 gusting 3 12.8
2020-Feb-20 18:16 143 0 gusting 3 12.8
2020-Feb-20 18:01 088 1 gusting 3 13.3
2020-Feb-20 17:46 102 2 gusting 4 13.3
2020-Feb-20 17:31 080 1 gusting 3 13.3
2020-Feb-20 17:17 087 2 gusting 4 13.9
2020-Feb-20 17:02 121 2 gusting 5 13.9
2020-Feb-20 16:45 091 2 gusting 5 13.9
2020-Feb-20 16:32 105 2 gusting 5 13.9
2020-Feb-20 16:16 062 3 gusting 6 13.9
2020-Feb-20 16:01 065 3 gusting 6 14.4
2020-Feb-20 15:46 092 3 gusting 6 14.4
2020-Feb-20 15:31 113 3 gusting 6 14.4
2020-Feb-20 15:16 096 4 gusting 7 14.4
2020-Feb-20 15:01 149 2 gusting 6 15.0
2020-Feb-20 14:45 108 4 gusting 6 15.0
2020-Feb-20 14:30 137 2 gusting 7 14.4
2020-Feb-20 14:16 082 2 gusting 7 15.0
2020-Feb-20 14:00 145 5 gusting 8 14.4
2020-Feb-20 13:45 121 4 gusting 8 15.0
2020-Feb-20 13:30 170 4 gusting 8 15.0
2020-Feb-20 13:16 176 5 gusting 9 14.4
2020-Feb-20 13:00 101 2 gusting 8 15.0